Location: Betra
(48.4113°N, 8.6634°E)
Time: 16:36:39
(UTC+00:00)

Cosmos 1703 Rocket - Pass Details

Date: 23 May 2024
Orbit: 602 x 629 km, 82.5° (Epoch: 16 June)

Event Time Altitude Azimuth Distance (km) Brightness Sun altitude
Exits shadow 00:58:58 33° 179° (S) 1,047 4.2 -17.6°
Maximum altitude 01:00:55 79° 97° (E) 643 3.6 -17.5°
Drops below altitude 10° 01:05:22 10° 12° (NNE) 2,014 7.4 -17.2°
Sets 01:07:38 0° 11° (N) 2,929 8.6 -17.0°
